Regional Weather Roundup
Issued by NWS

Home | Current Version | Previous Version | Text Only | Print | Product List | Glossary On
Versions: 1 2 3 4 5 6 7 8 9 10 11 12 13 14 15 16 17 18 19 20 21 22 23 24 25 26 27 28
000
ASUS42 KTBW 230510
RWRFL
FLORIDA REGIONAL WEATHER ROUNDUP
NATIONAL WEATHER SERVICE TAMPA BAY RUSKIN FL
100 AM EDT THU OCT 23 2014

NOTE: "FAIR" INDICATES FEW OR NO CLOUDS BELOW 12,000 FEET WITH NO
SIGNIFICANT WEATHER AND/OR OBSTRUCTIONS TO VISIBILITY.


FLZ001>010-012>015-112-114-115-230600-
PANHANDLE FLORIDA

CITY           SKY/WX    TMP DP  RH WIND       PRES   REMARKS
PENSACOLA      CLEAR     61  45  55 NE7       30.07F
PENSACOLA NAS  CLEAR     57  47  69 N7        30.06F
MILTON NAS     CLEAR     51  43  74 N3        30.08F
CRESTVIEW      CLEAR     49  45  86 NE3       30.08F
DUKE FIELD     CLEAR     47  44  89 CALM      30.07F
VALPARAISO     CLEAR     54  46  74 N6        30.07F
MARY ESTHER    CLEAR     52  43  70 N7        30.06F
PANAMA CITY    FAIR      52  45  77 N5        30.05F
TYNDALL AFB    CLEAR     61  48  62 NE5       30.06F
APALACHICOLA   CLEAR     60  49  66 NE6       30.04F

STATION/POSITION SKY/WX   TEMP    WIND        PRES    WAVE   SWELL
                          AIR SEA DIR/SP/G            HT/PER HT/PER
                          (F)     (DEG/KT/KT) (MB)    (FT/S) (FT/S)
30.1N   87.6W              70 78   30/ 17/ 19 1017.3F   3/ 4
29.2N   88.2W              74 79   40/ 19/ 23 1017.2F   3/ 5
28.8N   86.0W              75 80   40/ 17/ 19 1015.7F   3/ 5
PANAMA CITY BEAC           60 77   20/  5/  6 1017.7F
CAPE SAN BLAS    NOT AVBL
TOWER C                    71      40/ 19/ 22 1016.3F
28.5N   84.5W              76 81   50/ 16/ 17 1015.1F   3/ 5

$$
FLZ011-016>038-118-127-128-134-139-239-230600-
NORTH FLORIDA

CITY           SKY/WX    TMP DP  RH WIND       PRES   REMARKS
MARIANNA       LGT RAIN  51  48  89 CALM      30.07F
TALLAHASSEE    CLEAR     59  46  62 N3        30.06F
PERRY          CLEAR     55  46  71 CALM      30.06S
CROSS CITY       N/A     51  49  92 CALM      30.03F
LAKE CITY      FAIR      48  46  93 CALM      30.05F FOG
GAINESVILLE    PTCLDY    57  53  86 N7        30.03F
MAYPORT NAS    CLEAR     63  52  67 VRB5      30.04F
JACKSONVILLE   PTCLDY    52  50  93 CALM      30.04F
JAX NAS        PTCLDY    68  47  46 N14       30.05F
JAX CRAIG      CLEAR     61  48  62 N6        30.04F
JAX CECIL      CLEAR     48  48 100 CALM      30.05F
FERNANDINA BEA FAIR      64  48  55 N8        30.03F
ST AUGUSTINE   PTCLDY    61  52  72 NW6       30.03F

STATION/POSITION SKY/WX   TEMP    WIND        PRES    WAVE   SWELL
                          AIR SEA DIR/SP/G            HT/PER HT/PER
                          (F)     (DEG/KT/KT) (MB)    (FT/S) (FT/S)
SHELL POINT                62      20/  6/ 10   N/A
KEATON BEACH               57      30/  5/  6 1017.4F
CEDAR KEY                  63      50/ 10/ 12 1016.8F
FERNANDINA                 66 75  360/  9/ 12 1016.8F
30.7N   81.3W                 76                N/A     3/ 6
MAYPORT                    63 76  350/  5/  6   N/A
31.4N   80.9W              67 75   10/ 14/ 17 1017.7F   2/ 5   2/ 9
ST AUGUSTINE               69      20/ 12/ 14 1017.1F

$$
FLZ040-043>046-052-053-057-058-063-144-230600-
INTERIOR CENTRAL FLORIDA

CITY           SKY/WX    TMP DP  RH WIND       PRES   REMARKS
OCALA          MOCLDY    63  52  67 NE3       30.02S
THE VILLAGES     N/A     63  55  77 N7        29.92S
LEESBURG       CLEAR     64  55  72 NE8       30.02S
SANFORD        PTCLDY    65  57  75 N6        30.00S
ORLANDO EXEC   PTCLDY    68  59  73 NE7       30.00S
ORLANDO INTL   PTCLDY    66  59  78 N9        30.00S
WINTER HAVEN   PTCLDY    67  59  75 NE7       30.00F
LAKELAND       PTCLDY    66  59  77 NE7       29.99S
BARTOW         FAIR      66  61  82 NE8       29.99F
OKEECHOBEE       N/A     68  64  88 MISG        N/A

$$
FLZ041-047-054-059-064-141-147-230600-
EAST CENTRAL FLORIDA

CITY           SKY/WX    TMP DP  RH WIND       PRES   REMARKS
DAYTONA BEACH  PTCLDY    68  54  60 NE12      30.01S
DELAND         PTCLDY    61  55  82 N6        30.02S
JFK SPACE CTR  PTCLDY    69  57  65 NE9       29.98F
CAPE CANAVERAL PTCLDY    71  58  63 NE8       29.97F
PATRICK AFB    PTCLDY    73  62  68 NE14      29.97S
MELBOURNE      PTCLDY    74  61  63 NE12      29.97S
VERO BEACH     CLOUDY    73  64  73 N7        29.95F
FT PIERCE      CLOUDY    74  65  73 N3        29.94F
STUART         CLOUDY    75  64  69 NE9       29.94F

STATION/POSITION SKY/WX   TEMP    WIND        PRES    WAVE   SWELL
                          AIR SEA DIR/SP/G            HT/PER HT/PER
                          (F)     (DEG/KT/KT) (MB)    (FT/S) (FT/S)
28.5N   80.2W              75 82   20/ 16/ 19 1014.9F
28.9N   78.5W              74 81   10/ 10/ 12 1015.1S   4/ 6   3/ 6
TRIDENT PIER               70 80   10/  5/  7 1014.6F
28.4N   80.5W                 79                N/A     2/11
27.6N   80.2W                 80                N/A     3/ 5

$$
FLZ050-056-061-142-242-148-248-149-249-151-251-155-255-
160-260-230600-
WEST CENTRAL FLORIDA

CITY           SKY/WX    TMP DP  RH WIND       PRES   REMARKS
CRYSTAL RIVER  FAIR      59  54  82 E3        30.01S
INVERNESS      FAIR      61  54  77 NE3       30.02S
BROOKSVILLE    PTCLDY    64  57  78 NE8       30.01S
ZEPHYRHILLS    FAIR      61  59  94 N6        30.01S
CLEARWATER     MOCLDY    70  61  73 NE13G21   29.98S
TAMPA INTL     MOCLDY    69  59  70 NE5       29.99S
TAMPA EXEC     PTCLDY    68  61  77 NE3       30.00R
PLANT CITY     PTCLDY    68  63  83 NE5       30.01S
MACDILL AFB    PTCLDY    68  64  86 E12       29.98S
ST PETERSBURG  PTCLDY    73  65  75 E17       29.97S
SARASOTA       MOCLDY    70  63  78 E14       29.94F
VENICE           N/A     72  64  78 MISG      29.95S

STATION/POSITION SKY/WX   TEMP    WIND        PRES    WAVE   SWELL
                          AIR SEA DIR/SP/G            HT/PER HT/PER
                          (F)     (DEG/KT/KT) (MB)    (FT/S) (FT/S)
CEDAR KEY                  63      50/ 10/ 12 1016.8F
28.5N   84.5W              76 81   50/ 16/ 17 1015.1F   3/ 5
27.3N   84.3W                 81                N/A     4/ 5
CLEARWATER BEACH NOT AVBL
MIDDLE TAMPA BAY           72      80/ 17/ 21 1015.2S
VENICE                     72 81   60/ 12/ 16 1013.7F

$$
FLZ066-069-070-075>078-162-262-165-265-230600-
SOUTHWEST FLORIDA AND KEYS

CITY           SKY/WX    TMP DP  RH WIND       PRES   REMARKS
PUNTA GORDA    CLOUDY    72  66  81 NE9       29.97S
FT MYERS       CLOUDY    75  68  78 NE9       29.93S
SOUTHWEST INTL CLOUDY    73  68  84 NE9       29.94S
NAPLES         CLOUDY    75  72  90 NE5       29.92F
MARATHON       LGT RAIN  75  75 100 E6        29.93S
KEY WEST NAS   CLOUDY    74  70  87 E13       29.91F
KEY WEST INTL  LGT RAIN  74  74 100 E9        29.92F

STATION/POSITION SKY/WX   TEMP    WIND        PRES    WAVE   SWELL
                          AIR SEA DIR/SP/G            HT/PER HT/PER
                          (F)     (DEG/KT/KT) (MB)    (FT/S) (FT/S)
VENICE                     72 81   60/ 12/ 16 1013.7F
NAPLES                     75 83   90/  2/  4 1013.9F
26.0N   85.6W              78 82   70/ 17/ 25 1013.1F   6/ 6
DRY TORTUGAS               77     120/ 16/ 18 1012.3F
NW FL BAY                  76      80/  8/  9 1013.8R
SAND KEY                   77      90/ 20/ 23 1012.6F
SOMBRERO KEY               76      90/ 16/ 17 1013.6F
LONG KEY                   77 79  110/  8/  9 1014.3S
MOLASSES REEF              78 83   80/  7/  8 1013.5R

$$
FLZ067-068-071>074-168-172>174-230600-
SOUTHEAST FLORIDA

CITY           SKY/WX    TMP DP  RH WIND       PRES   REMARKS
W PALM BEACH   CLOUDY    79  69  71 N7        29.91F
FT LAUDER-EXEC CLOUDY    75  71  87 CALM      29.92F
FT LAUDERDALE  CLOUDY    76  71  85 CALM      29.92S
POMPANO BEACH  LGT RAIN  76  74  93 SW5       29.92F
PEMBROKE PINES CLOUDY    75  73  93 CALM      29.94S
OPA LOCKA      CLOUDY    76  74  93 NE3       29.93S
MIAMI          CLOUDY    75  73  93 CALM      29.93S
WEST KENDALL   LGT RAIN  76  72  87 CALM      29.94R
HOMESTEAD      CLOUDY    74  73  95 W2        29.93S

STATION/POSITION SKY/WX   TEMP    WIND        PRES    WAVE   SWELL
                          AIR SEA DIR/SP/G            HT/PER HT/PER
                          (F)     (DEG/KT/KT) (MB)    (FT/S) (FT/S)
PORT EVERGLADES            78      70/  5/  7 1013.2
VIRGINIA KEY               77 81  150/  4/  5 1013.9F
LAKE WORTH                 80 83   60/ 12/ 14 1012.8S
FOWEY ROCKS                78 80  110/  6/  7 1013.6S
SETTLEMENT POINT           79      70/  8/  9 1013.6F

$$




USA.gov is the U.S. government's official web portal to all federal, state and local government web resources and services.